TimeEST,TemperatureF,Dew PointF,Humidity,Sea Level PressureIn,VisibilityMPH,Wind Direction,Wind SpeedMPH,Gust SpeedMPH,PrecipitationIn,Events,Conditions,WindDirDegrees,DateUTC
12:53 AM,57.9,48.9,72,29.88,10.0,SW,19.6,25.3,N/A,,Overcast,220,2011-11-20 05:53:00
1:53 AM,60.1,51.1,72,29.90,10.0,SW,18.4,32.2,N/A,,Overcast,230,2011-11-20 06:53:00
2:53 AM,59.0,51.1,75,29.94,10.0,WSW,18.4,29.9,N/A,,Overcast,250,2011-11-20 07:53:00
3:53 AM,57.9,51.1,78,29.96,10.0,West,17.3,26.5,N/A,,Overcast,260,2011-11-20 08:53:00
4:10 AM,57.2,50.0,77,29.96,10.0,West,15.0,25.3,N/A,,Overcast,260,2011-11-20 09:10:00
4:48 AM,57.2,48.2,72,29.99,9.0,West,20.7,28.8,N/A,,Overcast,260,2011-11-20 09:48:00
4:53 AM,57.0,48.9,74,29.99,9.0,West,17.3,28.8,N/A,,Overcast,260,2011-11-20 09:53:00
5:00 AM,57.2,48.2,72,29.99,9.0,West,16.1,24.2,N/A,,Overcast,260,2011-11-20 10:00:00
5:26 AM,53.6,44.6,72,30.02,10.0,WNW,16.1,29.9,N/A,,Overcast,290,2011-11-20 10:26:00
5:53 AM,50.0,42.1,74,30.05,10.0,WNW,17.3,-,N/A,,Scattered Clouds,290,2011-11-20 10:53:00
6:10 AM,50.0,42.8,76,30.05,10.0,NW,18.4,25.3,N/A,,Mostly Cloudy,320,2011-11-20 11:10:00
7:53 AM,46.0,37.9,73,30.13,10.0,NW,11.5,-,N/A,,Overcast,320,2011-11-20 12:53:00
9:22 AM,44.6,35.6,71,30.16,10.0,NNW,5.8,-,N/A,,Scattered Clouds,330,2011-11-20 14:22:00
9:53 AM,45.0,37.0,74,30.19,10.0,NW,4.6,-,N/A,,Partly Cloudy,320,2011-11-20 14:53:00
10:41 AM,46.4,35.6,66,30.20,10.0,NNW,5.8,-,N/A,,Mostly Cloudy,330,2011-11-20 15:41:00
10:53 AM,45.0,37.0,74,30.22,10.0,West,4.6,-,N/A,,Mostly Cloudy,270,2011-11-20 15:53:00
11:53 AM,46.0,37.0,71,30.20,10.0,NW,6.9,-,N/A,,Mostly Cloudy,320,2011-11-20 16:53:00
12:26 PM,46.4,35.6,66,30.20,10.0,WNW,6.9,-,N/A,,Scattered Clouds,300,2011-11-20 17:26:00
12:53 PM,46.9,34.0,61,30.20,10.0,NW,9.2,-,N/A,,Clear,320,2011-11-20 17:53:00
1:53 PM,46.9,33.1,59,30.20,10.0,North,9.2,-,N/A,,Clear,350,2011-11-20 18:53:00
2:53 PM,46.9,34.0,61,30.22,10.0,NNW,9.2,-,N/A,,Clear,330,2011-11-20 19:53:00
3:53 PM,45.0,33.1,63,30.23,10.0,NNW,11.5,-,N/A,,Mostly Cloudy,340,2011-11-20 20:53:00
4:53 PM,44.1,33.1,65,30.24,10.0,NNW,10.4,-,N/A,,Clear,340,2011-11-20 21:53:00
5:53 PM,43.0,33.1,68,30.27,10.0,North,8.1,-,N/A,,Clear,350,2011-11-20 22:53:00
6:53 PM,43.0,33.1,68,30.30,10.0,North,8.1,-,N/A,,Scattered Clouds,350,2011-11-20 23:53:00
7:53 PM,41.0,32.0,70,30.30,10.0,NNE,10.4,-,N/A,,Overcast,20,2011-11-21 00:53:00
9:53 PM,39.9,32.0,73,30.28,10.0,NNE,11.5,-,N/A,,Overcast,30,2011-11-21 02:53:00
10:53 PM,39.9,32.0,73,30.28,10.0,NE,11.5,-,N/A,,Overcast,50,2011-11-21 03:53:00
11:53 PM,39.9,32.0,73,30.31,10.0,NE,10.4,-,N/A,,Overcast,40,2011-11-21 04:53:00